SL-16 DEB, 22403

Orbit data source: Space-Track

SL-16 DEB, 22403 is space debris in LEO originally from a launch on Fri, 25 Dec 1992 UTC launched from the Tyuratam Missile And Space Complex (TTMTR). Debris objects in space refer to the collection of defunct objects orbiting the Earth. Examples of debris include non-operational satellites, rocket bodies, and fragments generated from explosions, collisions, or faulty payload assembly.

Loading next visibility...
Identifier
22403, 1992-093CU
Orbit
LEO
Country
Flag of CISCIS
Related business
Manufacturer
Unknown
Mission
Spacecraft
Bus & Motor
Unknown
Mass
Unknown
Launch date (UTC)
1992-12-25 (33 years ago)
Launch vehicle
Unknown
Launch site
Tyuratam Missile And Space Complex (TTMTR)
Object type
Payload
Rocket body
Debris
Shape & HBR
Unknown shape, 0.1 m
Radar Cross Section
Small (<0.1 m²)

Expand to show TLE details & history
Last TLE update: 12 hours ago

TLE from 12 hours ago
0 SL-16 DEB
1 22403U 92093CU  25296.52860014  .00000784  00000-0  48680-3 0  9992
2 22403  70.8927 343.0891 0078105 110.5049  13.5981 14.06659977676151
Epoch: 2025-10-23T12:41Z
TLE epoch observation values (Epoch: 2025-10-23T12:41:11.052Z)
Latitude
51.41292°
Longitude
-84.97885°
Altitude
823.542 km
Speed
7.475 km/s
True Right ascension
09h 10m 00s
True Declination
51° 14' 48"
Sunlit
Object was in daylight at epoch
Visualization orbit readout
Latitude
Unknown
Longitude
Unknown
Altitude
Unknown
Speed
Unknown
Apparent Right ascension
Unknown
Apparent Declination
Unknown
Sunlit
N/A
Visualization observer readout
Local Sidereal Time
19:31:34
Azimuth
Unknown
Elevation
Unknown
Doppler factor
Unknown
Orbital elements
Apogee altitude
925.369 km
Perigee altitude
812.165 km
Semi-major axis
7,246.904 km
Eccentricity
0.00781
Inclination
70.8927°
RAAN
343.0891°
Arg. of periapsis
110.5049°
True anomaly
13.81054°
Mean anomaly
13.5981°
Eccentric anomaly
13.70412°
Mean motion
3.51815 °/min
Orbital period
102.33 mins
BSTAR
0.0004868
Loading maneuver chart data...
Computing Atmospheric mass density...
Loading historical data...
Loading historical data...
Loading historical data...
Loading historical data...
Loading historical data...
Loading historical data...
Loading historical data...

Documentation

Showing up to 5 results
|